Showing default

QZS-6, 62876

Orbit data source: Space-Track

QZS-6, 62876 is a Japanese payload satellite in GEO that was launched on Sun, 02 Feb 2025 UTC via a H3-22S launch vehicle from the Tanegashima Space Center (TNSTA). Payload-class satellites include a variety of spacecraft equipped with specific instruments for various scientific and technological missions. These include communications satellites like Starlink; space stations such as the ISS; scientific satellites like the Hubble; Earth observation satellites from companies like Planet Labs, Umbra, and HawkEye 360; GPS; miniature CubeSats for education and research; and military/defense satellites.

Not visible in the next 10 days
Identifier
62876, 2025-023A
Orbit
GEO
Country
Flag of JPJP / JPN
Related business
Manufacturer
MELCO
Mission
Operational Civil Nav/Com
Bus & Motor
DS-2000, LAPS-500?
Mass
4,900 kg wet, ~2,000 kg dry
Launch date (UTC)
2025-02-02 (1 year ago)
Launch vehicle
H3-22S
Launch site
Tanegashima Space Center (TNSTA)
Object type
Payload
Rocket body
Debris
Shape & HBR
Box + 2 Pan, 22.5 m
Radar Cross Section
39.598 m²

Expand to show TLE details & history
Last TLE update: 4 hours ago

TLE from 4 hours ago
0 QZS-6
1 62876U 25023A   26123.20511240 -.00000226  00000-0  00000+0 0  9990
2 62876   0.0639  79.9751 0002836 332.9821 332.5119  1.00272836  4506
Epoch: 2026-05-03T04:55Z
TLE epoch observation values (Epoch: 2026-05-03T04:55:21.711Z)
Latitude
-0.02672°
Longitude
90.49578°
Altitude
35,775.125 km
Speed
3.076 km/s
True Right ascension
01h 41m 47s
True Declination
0° 01' 36"
Sunlit
Object was in daylight at epoch
Visualization orbit readout
Latitude
Unknown
Longitude
Unknown
Altitude
Unknown
Speed
Unknown
Apparent Right ascension
Unknown
Apparent Declination
Unknown
Sunlit
N/A
Visualization observer readout
Local Sidereal Time
16:49:12
Azimuth
Unknown
Elevation
Unknown
Doppler factor
Unknown
Orbital elements
Apogee altitude
35,799.329 km
Perigee altitude
35,775.413 km
Semi-major axis
42,165.508 km
Eccentricity
0.00028
Inclination
0.0639°
RAAN
79.9751°
Arg. of periapsis
332.9821°
True anomaly
332.4969°
Mean anomaly
332.5119°
Eccentric anomaly
332.5044°
Mean motion
0.25067 °/min
Orbital period
1,436.14 mins
BSTAR
0
Loading maneuver chart data...
Computing Atmospheric mass density...
Loading historical data...
Loading historical data...
Loading historical data...
Loading historical data...
Loading historical data...
Loading historical data...
Loading historical data...
Other satellites on launch #23 in the year 2025 (2025-02-02 UTC)

Documentation

Showing up to 5 results
|